Wind_Speed
5 5 4 5 5 4 2 2 8 11 13 14 12 12 13 14 15 15 14 14 14 13 9 5 3 8 9 6 6 7 5 8 9 8 8 6 5 5 4 8 8 7 2 3 5
6 6 6 6 5 5 4 3 4 9 12 14 12 11 12 13 16 17 17 16 16 15 11 6 2 8 5 5 5 5 4 7 7 6 7 4 2 2 4 4 10 8 2 3 6
5 6 7 7 7 5 5 4 5 7 11 13 14 12 11 12 15 21 20 19 18 16 12 7 3 6 1 2 2 4 4 6 4 3 2 1 2 1 2 3 5 8 7 1 5
7 6 7 8 7 7 6 5 6 7 8 11 14 14 12 13 8 20 21 20 20 17 13 8 3 1 2 2 1 3 5 6 5 4 1 1 2 2 2 2 4 6 8 5 2
8 6 6 8 8 8 7 7 6 7 9 10 12 14 14 15 14 16 23 21 21 19 15 11 7 4 2 1 3 4 5 6 3 3 2 3 4 4 7 5 6 4 4 5 5
8 7 5 6 8 9 8 8 7 7 7 9 12 14 17 16 17 13 22 22 21 21 16 14 10 8 3 2 2 7 8 7 5 4 5 5 7 8 7 9 8 5 3 1 4
7 8 6 5 6 8 8 8 8 8 7 9 12 14 17 20 19 16 17 25 23 20 17 17 15 9 8 4 3 7 5 5 5 5 5 6 5 4 8 11 11 10 7 5 2
7 7 8 7 6 5 7 9 8 9 9 8 9 13 15 20 19 23 19 22 25 21 19 18 18 14 10 7 2 4 7 11 7 7 7 5 6 3 13 16 16 14 12 8 5
7 6 7 7 8 7 6 7 9 9 8 8 8 9 13 19 22 24 23 22 25 27 23 21 20 15 14 8 7 12 13 9 4 8 8 7 9 7 13 15 17 15 14 12 10
7 7 7 8 8 8 7 7 9 9 9 9 9 7 11 18 21 24 27 23 24 23 26 26 22 19 17 15 16 12 11 9 9 4 7 11 14 11 14 13 14 17 14 13 12
8 8 8 8 9 9 7 7 7 9 10 11 8 16 7 14 18 21 26 29 26 24 20 19 24 29 21 18 13 9 11 10 7 7 8 13 16 16 12 15 14 12 16 10 10
7 8 8 8 8 9 8 7 7 8 8 12 15 13 12 11 15 19 23 27 30 25 20 19 25 24 22 19 17 15 14 14 10 7 12 14 17 15 13 13 15 16 15 8 7
7 8 7 7 8 8 7 7 7 7 5 9 13 16 18 16 14 15 20 22 22 24 24 24 13 20 23 22 20 18 18 13 9 10 14 14 15 9 8 13 16 14 12 7 7
6 7 7 6 7 7 7 7 7 5 4 4 7 11 18 17 16 17 16 17 18 24 22 24 20 20 24 26 25 22 16 14 10 11 12 5 16 4 6 11 13 8 7 10 10
6 7 6 6 6 7 6 6 5 5 6 5 5 8 12 18 12 20 19 18 17 18 24 23 21 20 24 27 23 25 13 12 11 14 13 15 11 11 4 10 6 3 7 15 11
6 6 6 6 6 5 5 6 6 4 4 3 5 4 7 15 13 12 23 19 15 18 20 22 18 20 26 24 26 20 20 15 15 16 15 18 9 7 1 8 5 4 11 11 9
6 6 5 5 5 5 6 7 3 6 4 4 5 4 7 10 15 13 21 22 18 19 20 20 20 15 21 27 21 24 23 20 15 16 14 4 8 16 6 7 9 2 7 10 12
5 4 3 3 4 5 6 6 6 3 4 3 3 5 6 10 12 16 17 21 23 18 14 22 19 25 19 26 29 28 31 25 15 12 12 8 11 13 6 10 12 5 8 9 11
3 2 2 3 4 4 7 6 3 5 3 3 3 4 6 8 8 16 19 22 22 20 18 17 23 8 18 21 24 26 33 32 26 12 14 8 8 14 11 6 5 4 3 8 10
1 1 0 2 4 4 4 8 5 8 6 2 4 4 6 6 9 12 14 15 22 21 20 13 10 19 18 20 23 20 25 26 23 14 14 16 11 12 6 6 4 4 1 3 6
0 1 2 2 2 4 5 6 5 9 11 4 5 4 4 5 8 10 9 15 15 18 19 20 13 10 16 24 27 26 21 32 27 29 15 11 13 11 10 10 6 2 3 3 6
2 1 2 1 2 5 5 5 6 5 10 10 9 9 6 5 6 8 11 10 9 19 22 23 15 22 17 17 26 27 33 29 22 18 19 20 13 2 9 9 9 8 5 6 8
3 4 4 3 2 4 7 5 6 6 7 7 9 9 6 5 4 8 6 5 13 15 21 20 22 22 22 19 18 28 30 36 33 29 26 16 21 11 7 8 11 12 10 11 13
2 2 4 6 6 6 6 6 7 6 9 11 10 10 8 7 9 5 6 5 9 17 22 18 23 26 23 28 25 23 27 32 32 30 23 24 19 14 11 11 12 12 13 18 15
2 4 5 4 5 7 9 7 7 6 8 8 9 14 13 10 11 10 6 5 2 9 22 20 23 26 26 23 13 19 27 27 32 33 29 22 21 21 18 14 13 12 14 15 16
3 4 5 8 11 11 11 8 9 9 10 7 10 6 15 12 10 3 8 3 4 2 1 17 23 23 25 25 24 21 20 21 27 29 29 25 23 19 17 18 14 14 13 15 19
5 6 7 8 7 8 10 11 7 10 10 13 9 11 13 14 13 15 18 16 9 6 4 9 18 22 24 23 25 30 30 26 23 24 23 23 20 15 15 15 13 11 16 12 17
Wind_Direction
280 279 282 289 297 296 289 182 194 200 197 198 199 196 198 193 181 180 182 183 179 172 169 159 65 27 19 67 85 125 124 114 103 92 91 85 84 67 56 46 39 26 56 181 172
267 267 269 271 278 279 274 252 209 202 200 202 201 200 196 195 188 188 190 187 184 179 174 168 87 39 51 94 98 136 142 139 118 108 93 60 97 70 64 55 27 21 29 174 174
267 262 256 256 255 269 274 261 236 212 201 203 204 200 196 191 192 197 193 189 190 186 186 184 131 62 112 145 151 181 142 156 151 108 87 70 26 47 79 23 350 22 24 141 176
266 269 266 257 251 248 252 251 244 236 218 202 204 203 194 186 180 203 195 195 196 198 199 199 169 40 164 182 141 157 200 190 163 197 191 26 339 359 320 312 345 13 32 70 117
257 264 271 263 255 249 244 244 247 236 226 214 208 203 198 197 199 200 197 196 198 204 204 202 204 208 238 251 115 175 215 215 230 161 138 279 296 291 321 333 337 347 10 69 91
251 244 253 260 251 249 250 242 237 240 237 224 216 206 201 202 200 197 196 197 200 206 208 210 211 200 247 316 151 202 205 218 240 259 269 294 277 304 296 328 333 325 318 164 86
261 240 236 243 246 245 245 250 243 238 231 225 218 214 205 207 200 198 194 198 201 204 206 217 215 198 235 275 186 190 208 231 252 276 288 305 289 252 272 317 309 318 304 274 301
273 249 239 240 242 242 241 245 245 241 237 232 225 218 214 211 203 201 199 197 203 210 210 215 221 220 226 246 268 209 239 216 222 254 272 289 244 291 295 312 319 300 297 278 256
285 265 246 244 250 250 241 244 244 242 242 237 232 227 222 214 208 204 201 197 205 216 222 223 226 224 234 233 236 215 238 229 214 262 268 269 258 279 300 311 314 310 296 272 252
281 269 258 252 254 256 246 246 250 244 235 233 228 228 225 215 213 209 203 201 203 209 223 231 232 228 225 219 225 209 227 228 241 264 274 274 270 271 291 309 302 298 298 283 261
280 274 265 260 261 265 257 252 251 250 236 221 205 211 206 211 212 209 206 203 203 207 209 219 224 220 218 219 240 229 237 244 246 271 294 282 278 275 276 291 299 277 307 298 272
282 277 269 261 258 263 259 252 244 240 235 229 223 214 210 207 208 209 205 206 209 211 208 222 225 221 221 227 226 231 236 242 263 254 291 294 283 284 274 282 290 305 302 285 235
284 277 269 260 252 251 249 253 257 254 238 232 225 214 216 214 205 210 205 201 208 208 214 219 232 216 219 218 222 228 234 242 264 281 281 290 280 269 269 294 296 301 286 261 197
283 274 271 254 248 248 250 254 258 244 169 239 214 211 212 211 219 209 197 201 205 211 217 227 226 220 218 219 220 232 229 247 271 272 283 286 282 264 283 310 304 286 267 184 183
280 276 271 256 247 249 244 235 218 170 215 211 183 197 204 190 213 214 207 202 210 209 207 221 219 220 216 218 219 229 233 245 254 269 279 248 252 262 285 344 341 339 176 176 175
283 278 269 257 245 233 214 195 179 178 178 166 183 181 181 201 202 214 209 204 204 211 220 220 234 222 223 224 225 229 236 246 258 255 261 250 254 264 317 357 16 71 161 175 186
290 283 265 244 226 211 196 177 177 242 194 168 187 204 225 212 208 198 197 200 197 199 213 217 227 222 213 219 224 222 225 231 233 232 241 184 238 255 271 308 341 296 180 189 191
300 286 255 222 203 199 182 161 231 208 170 202 235 259 212 207 211 207 207 210 211 218 228 211 211 215 218 215 216 218 218 222 223 241 232 193 247 247 246 293 317 271 240 211 213
318 302 234 207 194 186 165 209 222 197 203 236 254 215 211 210 186 205 215 220 219 213 222 221 232 216 210 212 208 217 221 219 238 233 280 229 233 266 262 269 322 320 264 224 226
341 47 125 182 178 178 172 224 219 209 197 215 225 208 209 203 204 204 209 227 221 223 211 231 245 228 222 214 216 218 217 214 225 242 237 242 235 252 235 245 290 336 327 222 241
220 77 118 110 149 169 220 237 239 240 217 226 222 220 226 196 204 212 216 231 211 222 213 220 228 208 208 212 210 210 219 215 226 224 248 238 235 237 243 250 248 305 328 279 275
190 237 238 240 134 206 239 243 251 248 245 234 238 242 237 238 230 219 223 226 223 218 221 220 230 235 225 224 215 225 215 212 221 210 237 274 272 224 267 232 250 263 285 271 265
227 232 241 244 182 264 264 271 271 245 242 231 229 236 232 231 242 217 213 243 234 216 217 218 222 235 230 221 227 217 216 221 226 235 238 230 243 229 249 272 264 270 266 262 250
236 273 261 245 236 226 269 276 244 243 226 232 225 234 227 249 234 211 225 265 252 219 211 210 227 224 225 228 218 216 217 220 222 230 233 239 251 245 254 268 279 261 262 254 257
280 247 237 265 271 234 254 257 248 252 237 232 247 227 225 233 226 234 245 244 37 224 221 212 227 229 233 242 225 220 219 221 222 229 242 246 242 251 257 265 277 264 262 248 256
316 281 278 271 265 262 258 259 245 234 239 236 221 221 220 236 232 247 219 215 193 351 277 219 232 234 237 236 234 235 229 221 225 227 242 248 256 259 258 263 274 276 242 247 245
314 299 292 276 276 262 255 252 248 240 248 230 228 236 236 247 258 246 238 242 233 291 303 272 238 233 241 231 232 236 227 226 222 218 227 236 248 235 230 241 259 255 227 235 247
Height
3147 3147 3147 3146 3146 3147 3147 3149 3150 3152 3154 3156 3158 3160 3162 3164 3167 3169 3170 3172 3173 3174 3175 3177 3178 3178 3177 3177 3178 3178 3182 3181 3182 3181 3183 3181 3182 3179 3179 3178 3176 3175 3174 3173 3173
3146 3146 3146 3146 3146 3146 3146 3147 3148 3150 3153 3155 3157 3159 3161 3163 3166 3167 3170 3170 3172 3173 3175 3177 3179 3179 3179 3179 3179 3179 3182 3182 3182 3183 3184 3183 3183 3181 3181 3179 3178 3176 3174 3174 3174
3144 3144 3144 3145 3145 3145 3145 3146 3147 3149 3151 3154 3156 3158 3160 3162 3165 3165 3168 3170 3172 3174 3176 3177 3179 3180 3182 3181 3181 3180 3182 3182 3183 3183 3183 3184 3182 3181 3182 3182 3180 3177 3175 3174 3174
3142 3142 3142 3143 3144 3144 3145 3145 3146 3146 3148 3151 3154 3156 3159 3161 3167 3164 3167 3170 3172 3174 3176 3178 3179 3181 3183 3183 3181 3182 3181 3182 3182 3183 3182 3184 3183 3182 3182 3182 3180 3178 3177 3175 3175
3140 3141 3141 3141 3142 3142 3143 3144 3144 3145 3147 3149 3151 3154 3157 3160 3161 3161 3165 3168 3171 3173 3176 3178 3180 3182 3183 3182 3182 3182 3182 3183 3182 3182 3182 3182 3183 3183 3181 3180 3179 3178 3177 3177 3176
3138 3139 3139 3139 3140 3140 3141 3142 3143 3144 3145 3147 3149 3151 3154 3158 3159 3160 3163 3167 3170 3172 3175 3177 3180 3180 3181 3181 3182 3181 3182 3182 3182 3183 3182 3182 3182 3181 3180 3180 3179 3178 3178 3178 3178
3135 3136 3137 3138 3138 3138 3139 3140 3141 3143 3144 3145 3147 3149 3151 3154 3156 3159 3161 3164 3167 3170 3173 3175 3178 3180 3180 3182 3181 3181 3183 3183 3182 3182 3182 3182 3181 3180 3180 3178 3179 3178 3178 3178 3179
3133 3133 3134 3135 3136 3137 3138 3138 3139 3140 3142 3143 3145 3146 3147 3150 3153 3157 3159 3162 3165 3168 3171 3174 3176 3178 3179 3180 3181 3181 3182 3180 3182 3182 3182 3183 3181 3181 3179 3178 3177 3178 3178 3178 3178
3130 3130 3131 3132 3133 3135 3136 3136 3138 3138 3139 3141 3143 3144 3146 3147 3150 3152 3157 3161 3163 3166 3168 3171 3174 3177 3178 3180 3181 3180 3177 3179 3180 3181 3182 3182 3180 3180 3178 3177 3176 3176 3176 3176 3176
3128 3128 3129 3130 3131 3132 3134 3134 3135 3136 3137 3138 3140 3144 3143 3144 3146 3149 3153 3157 3161 3164 3167 3169 3172 3175 3177 3178 3175 3175 3176 3179 3179 3181 3180 3181 3179 3178 3178 3176 3174 3172 3173 3174 3175
3126 3126 3126 3127 3128 3129 3132 3133 3136 3135 3134 3136 3136 3137 3139 3141 3143 3146 3150 3154 3158 3162 3165 3167 3171 3170 3173 3175 3175 3177 3178 3178 3179 3179 3178 3178 3176 3176 3176 3174 3173 3172 3170 3171 3172
3124 3123 3124 3125 3126 3126 3128 3129 3130 3132 3132 3132 3133 3135 3136 3138 3141 3143 3147 3152 3154 3158 3163 3165 3163 3168 3171 3173 3175 3176 3176 3176 3177 3177 3176 3175 3173 3173 3173 3171 3170 3170 3168 3168 3169
3122 3121 3122 3122 3123 3124 3125 3126 3127 3128 3129 3129 3129 3131 3133 3137 3138 3140 3144 3148 3151 3156 3158 3160 3163 3164 3166 3170 3172 3173 3173 3173 3176 3176 3174 3171 3170 3169 3169 3169 3167 3166 3166 3165 3167
3119 3119 3119 3120 3123 3121 3123 3124 3124 3126 3128 3129 3127 3128 3130 3133 3136 3137 3140 3147 3149 3152 3157 3157 3159 3160 3163 3166 3169 3169 3171 3173 3174 3175 3170 3170 3164 3166 3167 3166 3164 3162 3162 3163 3165
3117 3117 3117 3118 3119 3119 3121 3121 3123 3125 3122 3127 3125 3125 3127 3132 3132 3134 3137 3141 3146 3148 3152 3153 3153 3156 3159 3161 3165 3167 3169 3171 3173 3172 3169 3166 3167 3163 3164 3163 3162 3159 3158 3161 3163
3114 3115 3115 3116 3116 3117 3118 3119 3122 3126 3120 3125 3123 3125 3126 3127 3130 3130 3133 3138 3143 3145 3145 3149 3148 3153 3156 3160 3162 3166 3168 3169 3170 3169 3165 3160 3164 3157 3160 3163 3162 3161 3160 3161 3161
3112 3112 3113 3113 3114 3115 3116 3119 3124 3120 3122 3124 3124 3124 3126 3127 3128 3130 3131 3133 3136 3140 3141 3143 3144 3147 3150 3155 3158 3161 3164 3163 3163 3161 3158 3158 3162 3158 3159 3161 3161 3161 3160 3160 3160
3111 3111 3111 3111 3112 3113 3115 3120 3121 3119 3120 3120 3121 3122 3123 3125 3126 3127 3130 3131 3134 3136 3136 3138 3141 3142 3143 3147 3152 3154 3158 3156 3156 3150 3150 3156 3157 3156 3157 3158 3158 3158 3158 3159 3159
3109 3109 3110 3110 3111 3112 3115 3119 3117 3118 3118 3119 3120 3121 3121 3121 3123 3125 3126 3128 3130 3133 3136 3135 3136 3137 3140 3143 3148 3149 3150 3153 3151 3150 3150 3146 3151 3154 3155 3156 3156 3156 3155 3157 3158
3108 3109 3109 3109 3110 3111 3115 3116 3115 3114 3115 3118 3119 3119 3120 3120 3121 3122 3123 3124 3126 3129 3132 3134 3135 3134 3138 3141 3142 3143 3149 3150 3149 3147 3147 3145 3149 3149 3152 3154 3155 3154 3155 3155 3154
3108 3109 3109 3109 3110 3111 3115 3115 3112 3113 3114 3117 3118 3118 3119 3119 3119 3119 3120 3122 3123 3126 3129 3131 3133 3132 3134 3132 3135 3140 3140 3142 3144 3145 3141 3141 3142 3145 3148 3150 3152 3153 3153 3152 3152
3107 3111 3108 3108 3112 3110 3113 3111 3110 3111 3111 3113 3114 3115 3117 3117 3117 3117 3118 3119 3120 3122 3124 3127 3129 3128 3128 3129 3131 3133 3135 3138 3138 3141 3143 3140 3139 3142 3145 3146 3148 3149 3151 3150 3150
3106 3107 3107 3107 3111 3110 3109 3108 3107 3109 3110 3111 3113 3113 3114 3116 3117 3115 3116 3116 3114 3116 3119 3123 3123 3123 3125 3126 3127 3126 3128 3132 3134 3135 3134 3137 3139 3139 3142 3143 3144 3145 3146 3146 3146
3106 3108 3106 3105 3106 3107 3108 3107 3107 3105 3106 3107 3110 3111 3112 3113 3114 3114 3114 3114 3111 3112 3115 3118 3118 3117 3114 3115 3120 3124 3125 3127 3129 3128 3131 3133 3136 3137 3139 3140 3141 3142 3143 3142 3144
3104 3105 3104 3107 3105 3104 3104 3105 3105 3106 3104 3105 3107 3107 3111 3112 3112 3112 3112 3112 3110 3108 3110 3114 3113 3113 3113 3113 3115 3116 3119 3122 3123 3125 3126 3128 3130 3133 3135 3136 3137 3137 3138 3139 3140
3103 3102 3101 3101 3100 3100 3101 3102 3101 3103 3103 3105 3105 3106 3108 3109 3110 3109 3109 3111 3110 3110 3109 3110 3109 3110 3111 3112 3113 3115 3115 3116 3119 3122 3124 3126 3128 3130 3130 3132 3133 3132 3133 3135 3136
3101 3100 3099 3099 3098 3098 3100 3098 3100 3099 3100 3101 3102 3102 3104 3106 3104 3103 3104 3105 3105 3107 3108 3108 3108 3107 3105 3107 3108 3107 3109 3112 3114 3117 3121 3123 3125 3124 3126 3127 3128 3128 3129 3130 3131